Regional Weather Roundup
Issued by NWS Tiyan, Guam

Home | Current Version | Previous Version | Text Only | Print | Product List | Glossary On
Versions: 1 2 3 4 5 6 7 8 9 10 11 12 13 14 15 16 17 18 19 20 21 22 23 24 25 26 27 28 29 30 31 32 33 34 35 36 37 38 39 40 41 42 43 44 45 46 47 48 49 50
000
ASGM40 PGUM 202112
RWRGUM
WEATHER ROUNDUP FOR THE MARIANAS
NATIONAL WEATHER SERVICE TIYAN GU
700 AM CHST TUE OCT 21 2014

GUZ001>004-202200-
MARIANA ISLANDS-

CITY           SKY/WX    TMP DP  RH WIND       PRES   REMARKS
GUAM AIRPORT   SUNNY     81  75  83 NE5       29.86R
ANDERSEN AFB   MOSUNNY   79  75  89 NE9       29.86R
ROTA AIRPORT   MOSUNNY   79  73  83 NE6       29.86R
TINIAN AP      MOSUNNY   79  75  89 CALM      29.83R
SAIPAN AP      SUNNY     81  73  78 N3        29.84R

$$



USA.gov is the U.S. government's official web portal to all federal, state and local government web resources and services.